2023/09/21 00:00:00, 5.9,21.6
2023/09/21 00:10:00, 5.7,21.7
2023/09/21 00:20:00, 5.4,21.9
2023/09/21 00:30:00, 5.2,21.8
2023/09/21 00:40:00, 4.8,21.9
2023/09/21 00:50:00, 4.7,21.9
2023/09/21 01:00:00, 4.8,21.9
2023/09/21 01:10:00, 5.0,21.9
2023/09/21 01:20:00, 5.1,21.5
2023/09/21 01:30:00, 5.2,22.1
2023/09/21 01:40:00, 5.3,22.2
2023/09/21 01:50:00, 5.7,22.3
2023/09/21 02:00:00, 5.9,22.2
2023/09/21 02:10:00, 6.1,22.3
2023/09/21 02:20:00, 6.4,22.6
2023/09/21 02:30:00, 7.1,22.4
2023/09/21 02:40:00, 7.5,22.1
2023/09/21 02:50:00, 7.7,22.1
2023/09/21 03:00:00, 7.8,22.3
2023/09/21 03:10:00, 7.5,22.2
2023/09/21 03:20:00, 6.4,22.0
2023/09/21 03:30:00, 7.2,22.2
2023/09/21 03:40:00, 7.8,21.9
2023/09/21 03:50:00, 7.7,21.9
2023/09/21 04:00:00, 7.3,22.0
2023/09/21 04:10:00, 7.0,22.1
2023/09/21 04:20:00, 6.8,21.9
2023/09/21 04:30:00, 6.6,22.1
2023/09/21 04:40:00, 6.6,22.0
2023/09/21 04:50:00, 6.6,22.0
2023/09/21 05:00:00, 6.7,21.9
2023/09/21 05:10:00, 6.8,22.0
2023/09/21 05:20:00, 7.0,21.8
2023/09/21 05:30:00, 7.2,22.0
2023/09/21 05:40:00, 7.4,22.0
2023/09/21 05:50:00, 7.6,22.2
2023/09/21 06:00:00, 7.9,21.9
2023/09/21 06:10:00, 7.9,21.9
2023/09/21 06:20:00, 8.0,22.0
2023/09/21 06:30:00, 7.9,22.2
2023/09/21 06:40:00, 7.8,22.5
2023/09/21 06:50:00, 7.8,22.4
2023/09/21 07:00:00, 7.8,22.7
2023/09/21 07:10:00, 7.8,22.7
2023/09/21 07:20:00, 7.7,22.8
2023/09/21 07:30:00, 7.6,23.3
2023/09/21 07:40:00, 7.5,23.5
2023/09/21 07:50:00, 7.6,23.5
2023/09/21 08:00:00, 8.2,24.0
2023/09/21 08:10:00, 8.2,25.3
2023/09/21 08:20:00, 7.6,25.9
2023/09/21 08:30:00, 6.9,26.2
2023/09/21 08:40:00, 6.6,26.4
2023/09/21 08:50:00, 7.2,26.1
2023/09/21 09:00:00, 7.2,26.1
2023/09/21 09:10:00, 2.5,26.8
2023/09/21 09:20:00, 5.7,26.9
2023/09/21 09:30:00, 5.8,26.4
2023/09/21 09:40:00, 3.5,26.5
2023/09/21 09:50:00, 2.2,26.4
2023/09/21 10:00:00, 5.5,26.5
2023/09/21 10:10:00, 6.1,26.6
2023/09/21 10:20:00, 5.6,27.0
2023/09/21 10:30:00, 5.3,26.5
2023/09/21 10:40:00, 1.0,26.1
2023/09/21 10:50:00, 1.5,26.6
2023/09/21 11:00:00, 6.4,26.5
2023/09/21 11:10:00, 6.3,26.9
2023/09/21 11:20:00, 0.3,26.8
2023/09/21 11:30:00, 0.3,25.7
2023/09/21 11:40:00, 0.3,25.3
2023/09/21 11:50:00, 0.3,24.9
2023/09/21 12:00:00, 0.3,25.1
2023/09/21 12:10:00, 0.3,24.7
2023/09/21 12:20:00, 0.3,24.6
2023/09/21 12:30:00, 0.3,24.6
2023/09/21 12:40:00, 0.7,24.4
2023/09/21 12:50:00, 3.6,24.8
2023/09/21 13:00:00, 4.3,25.4
2023/09/21 13:10:00, 1.2,25.5
2023/09/21 13:20:00, 2.3,26.5
2023/09/21 13:30:00, 5.8,26.2
2023/09/21 13:40:00, 6.6,25.9
2023/09/21 13:50:00, 6.7,25.6
2023/09/21 14:00:00, 3.8,25.8
2023/09/21 14:10:00, 5.7,24.6
2023/09/21 14:20:00, 4.9,23.9
2023/09/21 14:30:00, 4.6,23.4
2023/09/21 14:40:00, 5.3,23.0
2023/09/21 14:50:00, 5.5,23.0
2023/09/21 15:00:00, 6.0,23.1
2023/09/21 15:10:00, 6.3,22.9
2023/09/21 15:20:00, 6.3,23.1
2023/09/21 15:30:00, 6.2,23.0
2023/09/21 15:40:00, 5.3,23.1
2023/09/21 15:50:00, 5.5,23.2
2023/09/21 16:00:00, 5.9,23.3
2023/09/21 16:10:00, 5.9,23.0
2023/09/21 16:20:00, 6.0,22.9
2023/09/21 16:30:00, 6.2,22.7
2023/09/21 16:40:00, 6.2,22.5
2023/09/21 16:50:00, 6.1,22.4
2023/09/21 17:00:00, 5.9,22.1
2023/09/21 17:10:00, 5.7,22.2
2023/09/21 17:20:00, 5.2,22.1
2023/09/21 17:30:00, 4.8,22.0
2023/09/21 17:40:00, 4.4,21.9
2023/09/21 17:50:00, 4.3,21.7
2023/09/21 18:00:00, 3.7,21.5
2023/09/21 18:10:00, 3.4,21.5
2023/09/21 18:20:00, 2.5,21.5
2023/09/21 18:30:00, 1.5,21.2
2023/09/21 18:40:00, 1.6,21.6
2023/09/21 18:50:00, 2.0,21.1
2023/09/21 19:00:00, 0.5,21.2
2023/09/21 19:10:00, 0.3,21.3
2023/09/21 19:20:00, 0.4,21.0
2023/09/21 19:30:00, 0.4,20.9
2023/09/21 19:40:00, 0.4,21.2
2023/09/21 19:50:00, 0.4,21.1
2023/09/21 20:00:00, 0.4,20.8
2023/09/21 20:10:00, 0.3,21.0
2023/09/21 20:20:00, 0.3,20.9
2023/09/21 20:30:00, 0.4,21.2
2023/09/21 20:40:00, 0.5,20.9
2023/09/21 20:50:00, 0.5,20.9
2023/09/21 21:00:00, 0.5,21.1
2023/09/21 21:10:00, 0.6,20.7
2023/09/21 21:20:00, 0.5,20.8
2023/09/21 21:30:00, 0.5,20.6
2023/09/21 21:40:00, 1.3,20.4
2023/09/21 21:50:00, 2.2,20.5
2023/09/21 22:00:00, 0.6,20.7
2023/09/21 22:10:00, 0.3,20.3
2023/09/21 22:20:00, 0.3,20.6
2023/09/21 22:30:00, 0.3,20.4
2023/09/21 22:40:00, 0.3,20.4
2023/09/21 22:50:00, 0.3,20.4
2023/09/21 23:00:00, 0.3,20.3
2023/09/21 23:10:00, 0.3,20.4
2023/09/21 23:20:00, 0.3,20.4
2023/09/21 23:30:00, 0.3,20.4
2023/09/21 23:40:00, 0.3,20.5
2023/09/21 23:50:00, 0.3,20.4
